User: anonymous   Login
Location: Unspecified
(0.0000°N, 0.0000°E)
Time: 19:26:48
(UTC+00:00)
Language:

OBJECT D - Orbit

View from above orbital plane
View from above orbital plane
View from above satellite
View from above satellite

Ground track
Ground track

The orbit is defined by the following mean orbital elements,

1 59920U          26145.61396096 +.00000000 +00000-0 +23450-3 0 00003
2 59920  97.5832 164.3488 0009973 302.9850  57.0427 15.22325043    02
Epoch (UTC): 25 May 2026 14:44:06
Eccentricity: 0.0009973
inclination: 97.5832°
perigee height: 492 km
apogee height: 506 km
right ascension of ascending node: 164.3488°
argument of perigee: 302.9850°
revolutions per day: 15.22325043
mean anomaly at epoch: 57.0427°

The dashed part of the orbit path shows where the satellite is in the earth's shadow,  

DLR